Starlink 3964

operational
NORAD ID: 52536 Int'l Des: 2022-051 Owner: SPXS Country: US Constellation: starlink
LEOCIRCULAR

About Starlink 3964

Description loading...

Live Position

Loading 3D Globe...

Upcoming Passes

Altitude History

Altitude vs Time

uPlot chart will show altitude changes over time

Two-Line Element Set

1 52536U 22051D 26032.93677126 .00000489 00000-0 48801-4 0 9991
2 52536 53.2172 289.6239 0001476 91.1316 268.9845 15.08838293206042
Epoch: Feb 1, 2026 • Age: 32 hours

Current Status

Altitude 543.4 km
Velocity 7.60 km/s
Sub-Earth Point 44.39°N, 178.66°W
Launch Date May 13, 2022
Age 3.7 years
Type internet

Technical Details

Classification Payload
Mass 297.00 kg
Dry Mass 275.00 kg
Total Mass 297.00 kg
Length 0.20 m
Diameter 2.80 m
Span 9.00 m
Shape Box + pan
Manufacturer SPXS
Bus Type Starlink
Phase Status In Orbit
Owner/State SPXS/US

Large Constellations

Loading constellations...